Погода в Пулково

Россия / Санкт-Петербург и Ленинградская область     59°58′23″N   29°11′44″E
темп.,
°C
ветер,
м/с
пор.,
м/с
влажн.,
%
обл.,
%
осадки,
мм/ч
давл.,
гПа
погр.,
м
13 мая, чт
чт1300:00+14юв44720 0.0 101821
03:00+11в55780 0.0 101735
06:00+11в57850 0.0 101565
09:00+13вюв5674100 0.0 1014179
12:00+14в677256 0.0 1014422
15:00+15в68635 0.0 1013482
18:00+16юв55485 0.0 1012447
21:00+13ююв33625 0.0 101113
14 мая, пт
пт1400:00+11всв346851 0.0 101019
03:00+10ю4680100 0.0 1010116
06:00+10вюв2396100 1.1 100970
09:00+10ю348755 1.3 1010154
12:00+13ю246420 0.0 1010504
15:00+14юв456081 0.0 1010496
18:00+13юв4572100 0.0 1009222
21:00+13юв467958 0.1 1009123
15 мая, сб
сб1500:00+12юв468289 0.0 1008139
03:00+10вюв458736 0.0 100769
06:00+10в459163 0.0 100657
09:00+11в558299 0.0 1006151
12:00+13всв567597 0.0 1005421
15:00+14в457398 0.2 1004407
18:00+12зюз4594100 3.9 100366
21:00+9зсз459987 6.1 100464
16 мая, вс
вс1600:00+8з6128899 0.0 1006181
03:00+7зюз489113 0.0 1007110
06:00+7зюз579312 0.0 1009142
09:00+8зюз469142 0.0 1010192
12:00+9зсз3486100 0.0 1012316
15:00+9ссз2284100 0.0 1012205
18:00+11в337993 0.0 101235
21:00+11в44805 0.0 101230
17 мая, пн
пн1700:00+11вюв458398 0.0 101240
03:00+10вюв578887 0.1 101269
06:00+10вюв69895 0.3 1011114
09:00+13вюв67765 0.3 1011166
12:00+15вюв5765100 0.0 1010494
15:00+17юв686387 0.0 1008484
18:00+17юв6963100 0.0 1006530
21:00+16ююв61070100 0.4 1006257